Location: Ladirat
(44.8151°N, 1.9702°E)
Time: 08:41:36
(UTC+00:00)

Daily predictions for brighter satellites

Satellite Brightness Start Highest point End
(mag) Time Altitude Azimuth Time Altitude Azimuth Time Altitude Azimuth
Cosmos 1980 Rocket 2.3 19:37:51 10° NNW 19:43:35 84° WSW 19:49:14 10° SSE
Cosmos 2228 3.6 19:40:46 10° SSE 19:44:30 35° E 19:48:16 10° NNE
COSMOS 2406 4.0 19:39:48 10° SSE 19:44:44 31° ESE 19:49:41 10° NE
CSL-04 Rocket 3.9 19:41:17 10° S 19:46:46 76° WSW 19:52:12 10° NNW
Cosmos 2084 Rocket 3.5 19:43:47 10° NW 19:47:59 75° NE 19:52:14 10° SE
ISS -1.9 19:45:03 10° W 19:48:05 31° NNW 19:51:08 10° NE
Cosmos 1461 3.6 19:45:36 10° S 19:48:38 24° ESE 19:51:40 10° ENE
Cosmos 1992 Rocket 4.5 19:44:18 10° S 19:49:05 39° ESE 19:53:54 10° NE
Cosmos 1455 Rocket 3.1 19:44:50 10° S 19:49:11 66° E 19:53:33 10° NNE
SL-08 R/B 4.1 19:45:05 10° NNE 19:49:24 33° E 19:53:37 10° SSE
Cosmos 1802 Rocket 4.0 19:43:56 10° S 19:50:03 72° E 19:56:11 10° NNE
Cosmos 1743 2.1 19:47:19 10° N 19:50:19 61° E 19:53:18 10° SSE
Terra 2.0 19:47:15 10° SSE 19:51:50 57° ENE 19:56:26 10° N
Cosmos 1892 Rocket 3.5 19:48:15 10° N 19:52:33 68° E 19:56:50 10° SSE
Okean O Rocket 2.7 19:52:54 10° SE 19:56:35 28° ENE 20:00:16 10° N
Cosmos 2333 Rocket 3.4 19:54:21 10° N 19:59:20 30° NE 20:04:18 10° ESE
NOSS 3-3 (A) 3.6 19:57:22 10° SSW 20:02:25 78° ESE 20:08:25 10° NE
Okean 1 Rocket 4.4 19:58:28 10° SSW 20:02:41 44° WNW 20:06:57 10° N
Cosmos 1437 Rocket 4.1 20:03:17 11° SE 20:05:35 18° E 20:08:08 10° NE
CZ-4B DEB 4.4 20:03:27 10° S 20:08:58 78° WSW 20:14:31 10° NNW
Cosmos 2360 Rocket 3.8 20:04:48 10° N 20:09:11 22° NE 20:13:32 10° E
Milstar 3 4.4 20:05:45 10° SW 20:10:05 18° S 20:15:04 10° SSE
Helios 1A Rocket 2.2 20:07:35 10° NNE 20:10:45 89° E 20:13:53 10° SSW
CZ-4B R/B 3.3 20:06:29 10° SSE 20:12:08 82° ENE 20:17:46 10° NNW
Cosmos 2233 Rocket 4.0 20:07:31 10° S 20:13:39 69° E 20:19:46 10° NNE
Cosmos 1302 Rocket 4.3 20:11:14 10° SSW 20:16:22 70° WNW 20:21:34 10° NNE
Okean-O 3.0 20:14:53 12° SE 20:18:38 46° ENE 20:22:50 10° N
Cosmos 909 Rocket 4.0 20:13:16 10° SSW 20:19:38 84° ESE 20:26:06 10° NE
Cosmos 2219 Rocket 4.1 20:17:52 10° N 20:21:45 18° NE 20:25:38 10° E
Cosmos 1758 Rocket 4.1 20:18:23 10° N 20:22:35 41° ENE 20:25:50 16° SE
GEOS 3 Rocket 4.1 20:22:54 11° SSE 20:27:55 60° SW 20:33:15 10° NW
ADEOS 3.7 20:25:36 10° S 20:30:48 77° WSW 20:36:03 10° NNW
NOSS 3-3 (C) 3.9 20:29:49 10° SW 20:34:58 77° NW 20:41:09 10° NE
Cosmos 220 Rocket 4.4 20:31:55 13° S 20:35:12 37° ESE 20:39:00 10° NE
Cosmos 2322 Rocket 3.0 20:36:48 10° NNW 20:42:05 38° NE 20:45:49 18° ESE
Cosmos 2082 Rocket 3.4 20:39:12 10° SW 20:44:41 47° WNW 20:50:11 10° NNE
Cosmos 1602 Rocket 4.1 20:42:26 10° N 20:46:33 41° ENE 20:48:44 23° SE
Tsikada Rocket 4.2 20:40:55 10° NNW 20:47:02 71° W 20:53:09 10° S
NOSS 3-4 (A) 4.2 20:42:43 10° NNW 20:49:17 55° NE 20:55:07 18° ESE
NOSS 3-4 (C) 4.2 20:43:21 10° NNW 20:49:56 55° NE 20:55:45 18° ESE
DELTA 2 R/B (1) 3.9 20:44:53 10° W 20:50:15 49° S 20:53:40 21° ESE
Cosmos 2369 4.5 20:45:34 10° NW 20:51:02 48° WSW 20:56:03 12° S
CZ-4B R/B 3.1 20:49:58 27° ESE 20:51:15 39° ENE 20:54:31 10° N
YAOGAN 11 4.1 20:49:12 10° NNE 20:53:40 89° WNW 20:58:09 10° SSW
Cosmos 2098 Rocket 3.6 20:53:24 24° SSE 20:55:44 40° E 20:59:42 10° NNE
Cosmos 2151 2.8 20:52:43 10° N 20:56:51 77° E 20:59:05 26° SSE
Ariane Rocket 3.3 20:59:02 25° SE 21:01:46 51° ENE 21:06:41 10° N
Cosmos 1626 Rocket 3.8 20:58:19 10° NNW 21:02:40 67° W 21:05:43 19° S
Spot 2 Rocket 4.0 21:03:00 15° S 21:07:07 54° W 21:12:04 10° NNW
Cosmos 2278 3.7 21:03:41 10° NNW 21:09:26 81° ENE 21:12:37 27° SSE
SPOT 3 Rocket 3.5 21:09:24 26° SSE 21:12:21 82° ENE 21:17:31 10° NNW
Cosmos 1763 Rocket 4.0 21:10:53 28° SSE 21:12:53 39° ESE 21:17:47 10° NE
SL-16 R/B 2.3 21:07:46 10° NNW 21:13:27 75° WSW 21:16:43 26° SSE
USA 186 2.9 21:12:57 24° SW 21:13:56 31° W 21:16:27 10° NNW
Meteor 1-5 Rocket 4.4 21:08:51 10° N 21:14:35 61° ENE 21:17:38 29° SSE
USA 290 2.2 21:18:07 53° E 21:18:07 53° E 21:21:05 10° NNE
Cosmos 1606 Rocket 3.7 21:17:14 36° SSE 21:18:37 52° E 21:22:49 10° NNE
Cosmos 1513 Rocket 4.5 21:15:01 14° S 21:20:29 87° W 21:26:39 10° N
Cosmos 1933 3.8 21:19:51 18° SSW 21:22:29 54° W 21:26:14 10° N
Cosmos 1464 Rocket 3.9 21:18:41 24° S 21:22:29 68° E 21:28:38 10° NNE
Cosmos 1461 4.5 21:21:26 10° WSW 21:24:47 31° NW 21:28:07 10° NNE
CZ-4B R/B 3.3 21:23:15 33° SSE 21:25:24 87° ENE 21:30:16 10° NNW
ISS -1.6 21:22:40 10° NW 21:25:32 25° N 21:28:15 11° ENE
Okean 1 3.2 21:25:54 47° ESE 21:26:05 48° E 21:29:33 10° NNE
Cosmos 1726 Rocket 3.7 21:25:49 40° ESE 21:26:21 43° E 21:30:11 10° NNE
BREEZE-M DEB (TANK) 3.1 21:24:59 10° WNW 21:27:25 27° N 21:28:12 21° NNE
COSMOS 2406 4.4 21:23:21 10° SW 21:28:49 44° WNW 21:34:19 10° NNE
NOSS 3 (A) 4.4 21:26:57 10° NW 21:29:11 73° NW 21:29:11 73° NW
Terra 4.2 21:26:43 10° SW 21:29:42 17° W 21:32:42 10° NW
Okean O Rocket 3.2 21:29:45 14° SSW 21:32:42 28° W 21:36:26 10° NW
Cosmos 1536 4.4 21:34:13 10° NNE 21:36:59 20° ENE 21:36:59 20° ENE
Cosmos-2242 3.8 21:37:47 32° E 21:37:47 32° E 21:41:24 10° NNE
Cosmos 1428 Rocket 4.4 21:33:01 10° N 21:39:15 74° E 21:42:00 35° SSE
Cosmos 1437 Rocket 4.5 21:37:04 10° SW 21:40:04 27° WNW 21:43:12 10° NNW
Cosmos 1777 Rocket 4.0 21:36:11 10° NNW 21:41:26 80° WSW 21:43:21 40° S
Cosmos 2333 Rocket 2.8 21:38:21 10° NW 21:43:50 49° WSW 21:46:30 28° SSW
Cosmos 1833 4.1 21:44:13 26° SSW 21:47:32 78° ESE 21:53:11 10° NNE
Okean 1-7 Rocket 3.7 21:44:30 10° NNW 21:48:59 71° W 21:50:19 44° SSW
Cosmos 1503 Rocket 3.9 21:46:18 10° NNW 21:51:30 85° WSW 21:53:04 46° SSE
CZ-2C R/B 3.0 21:52:45 42° WNW 21:52:45 42° WNW 21:54:55 10° NNW
Cosmos 2360 Rocket 2.3 21:48:03 10° NNW 21:53:43 70° WSW 21:55:44 40° S
Cosmos 1766 4.0 21:54:25 10° N 21:56:45 33° NE 21:56:45 33° NE
Cosmos 2034 Rocket 4.0 21:58:36 34° S 22:01:37 88° E 22:08:00 10° N
Cosmos 2221 4.4 22:03:18 18° ENE 22:03:18 18° ENE 22:05:27 10° NE
Cosmos 2333 4.3 21:58:11 10° NNW 22:03:53 70° WSW 22:05:42 44° S
Cosmos 2219 Rocket 2.1 22:00:45 10° NNW 22:06:28 88° WSW 22:08:05 49° SSE
Cosmos 1354 Rocket 3.9 22:01:16 10° NNW 22:06:32 89° ENE 22:07:46 54° SSE
Cosmos 540 Rocket 3.5 22:07:44 33° SSW 22:10:02 75° WNW 22:15:12 10° NNE
Cosmos 1825 Rocket 4.2 22:08:45 10° NNW 22:12:55 46° W 22:13:51 39° SW
Cosmos 2279 Rocket 4.4 22:16:40 41° SE 22:18:00 47° E 22:23:58 10° NNE
Helios 1A 2.9 22:14:34 10° NNE 22:18:07 65° ENE 22:18:07 65° ENE
Cosmos 1953 Rocket 3.5 22:15:29 10° NNW 22:19:48 69° W 22:20:10 65° SW
RESURS DK-1 3.5 22:16:56 10° N 22:20:32 32° NE 22:20:45 31° ENE
Cosmos 1707 4.0 22:23:33 27° N 22:23:33 27° N 22:25:03 10° N
Aureole 1 Rocket 4.0 22:16:24 10° NNW 22:22:24 80° ENE 22:24:34 46° SSE
Cosmos 1634 Rocket 3.9 22:22:34 49° SSE 22:24:18 75° E 22:30:30 10° NNE
Cosmos 2322 Rocket 3.2 22:20:56 10° NW 22:26:03 36° WSW 22:27:37 30° SW
Cosmos 1937 Rocket 4.4 22:24:17 10° N 22:29:01 36° ENE 22:30:08 32° E
Cosmos 2058 Rocket 3.0 22:30:59 74° WSW 22:31:12 76° W 22:35:32 10° N
Cosmos 468 Rocket 3.9 22:30:14 55° SSW 22:31:26 87° WNW 22:36:43 10° NNE
Geosat 3.9 22:29:23 10° NNE 22:34:24 83° WNW 22:35:38 52° SW
CZ-2C R/B 4.3 22:30:27 10° NNE 22:34:15 42° E 22:34:15 42° E
BREEZE-M DEB 4.2 22:31:36 10° WSW 22:36:13 86° S 22:48:15 10° E
Cosmos 2026 Rocket 4.3 22:33:19 10° NNW 22:39:36 62° W 22:41:40 42° SSW
Cosmos 44 3.3 22:35:05 10° NW 22:40:29 79° WSW 22:41:01 70° S
Meteor 2-9 Rocket 4.4 22:35:15 10° N 22:40:34 55° ENE 22:41:24 50° ESE
Cosmos 2237 Rocket 3.6 22:39:52 10° N 22:44:50 30° NE 22:47:09 23° E
USA 234 3.7 22:43:51 10° ENE 22:49:36 41° ESE 22:49:36 41° ESE
Cosmos 1470 3.9 22:47:16 10° N 22:49:19 34° N 22:49:19 34° N
ARIANE 5 R/B 2.9 22:52:41 57° ENE 22:52:41 57° ENE 22:57:00 10° N
ALOS 2 3.1 22:54:46 49° ENE 22:54:46 49° ENE 22:58:56 10° N
Cosmos 2227 Rocket 4.1 22:55:50 16° E 22:55:50 16° E 22:58:36 10° ENE
Helios 1B rocket 3.2 22:58:18 40° NW 22:58:18 40° NW 23:00:45 10° NNW
COSMOS 2428 2.6 22:52:59 10° NNW 22:58:43 80° ENE 22:59:34 64° SE
ISS -1.7 22:59:28 10° NW 23:01:11 27° NW 23:01:11 27° NW
Cosmos 2263 Rocket 4.4 23:03:56 11° E 23:03:56 11° E 23:05:00 10° ENE
Cosmos 1898 Rocket 3.3 22:59:03 10° NNW 23:04:16 86° WSW 23:04:33 80° S
CZ-2C R/B 4.0 23:03:47 10° NNE 23:09:08 38° E 23:09:26 37° ESE
Meteor 1-11 Rocket 3.8 23:03:53 10° N 23:09:29 63° ENE 23:10:10 58° ESE
Meteor 1-10 Rocket 4.2 23:11:29 64° SE 23:12:12 71° E 23:18:08 10° NNE
Cosmos 1536 4.4 23:09:04 10° NNW 23:11:30 25° WNW 23:11:30 25° WNW
Cosmos 1238 Rocket 4.5 23:14:04 26° ENE 23:14:04 26° ENE 23:16:52 10° NNE
PSLV R/B 3.9 23:13:35 10° NNE 23:17:16 59° NE 23:17:16 59° NE
Meteor 1-27 Rocket 3.9 23:25:50 58° ESE 23:26:19 60° E 23:31:59 10° NNE
Cosmos 841 Rocket 3.8 23:27:23 51° WSW 23:28:13 57° WNW 23:33:24 10° NNE
Cosmos 2297 Rocket 2.0 23:27:59 72° SE 23:28:15 73° ESE 23:33:53 10° NNE
NOSS 0 Rocket 3.8 23:23:48 10° NNW 23:29:59 79° WSW 23:30:48 67° S
Cosmos 1975 4.2 23:31:12 10° NNW 23:33:29 30° NW 23:33:29 30° NW
Spot 4 4.2 23:36:12 53° W 23:36:12 53° W 23:40:39 10° NNW
Cosmos 2221 3.5 23:39:35 37° WNW 23:39:35 37° WNW 23:43:12 10° N
Cosmos 1812 Rocket 4.1 23:39:58 52° WNW 23:39:58 52° WNW 23:44:00 10° N
Cosmos 2322 4.3 23:36:52 10° NW 23:42:12 42° WSW 23:42:12 42° WSW
MetOp-A 3.8 23:42:38 76° ENE 23:42:38 76° ENE 23:47:18 10° N
Meteor 1-16 4.5 23:38:48 10° N 23:44:17 85° E 23:44:39 78° SSE
ACS3 Solar Sail 3.0 23:40:11 10° NE 23:45:12 27° E 23:46:10 26° ESE
Cosmos 2219 Rocket 4.3 23:47:02 10° WNW 23:49:30 13° W 23:49:46 13° W
